Wind_Speed
20 21 21 20 20 19 19 19 19 19 19 19 19 20 21 21 21 21 21 20 20 21 21 20 18 17 17 18 18 18 17 15 15 14 12 9 8 7 5 2 3 4 5 5 5 4 4 5 7 9 12 14 14 15 16 16 14 12 10 8 9 9 10 13 11 9 8 5 6 8 5 7 10 8 8 13 16 18 20 21 21 20 18 18 18 17 15 15
21 21 22 21 21 21 21 20 20 20 20 20 20 20 21 21 21 21 21 20 20 20 21 20 18 17 17 18 18 19 17 16 16 14 12 9 8 7 4 2 4 5 5 5 5 6 7 6 6 8 10 13 14 15 16 16 14 13 10 7 7 8 11 14 9 2 9 12 11 10 7 10 10 10 11 12 14 14 14 14 14 15 15 15 15 15 15 16
21 21 22 22 22 22 22 22 21 21 21 20 20 20 20 20 20 21 21 20 19 19 20 20 18 17 17 17 18 19 18 17 16 14 12 9 8 6 3 3 5 5 5 4 4 6 8 9 7 6 9 12 15 15 15 14 14 13 12 10 9 7 8 12 8 3 11 15 12 13 12 10 9 11 12 13 13 13 13 12 13 13 12 13 13 13 14 16
20 21 22 22 22 22 23 23 22 22 22 21 21 20 20 20 20 20 20 20 20 19 20 19 18 17 17 17 18 19 19 18 16 14 12 9 8 6 3 3 5 5 5 4 4 4 6 10 8 5 8 10 12 14 13 13 14 13 13 14 13 11 8 7 3 4 9 13 9 11 14 11 10 10 11 10 10 12 13 12 12 11 10 11 11 11 13 14
19 20 21 21 22 22 23 23 23 23 22 22 21 21 20 20 20 20 20 20 20 20 20 19 18 16 17 17 18 19 18 18 16 14 11 8 8 6 3 3 5 5 4 4 5 5 7 10 10 5 7 9 9 10 11 12 12 13 13 12 12 13 11 7 1 5 9 11 9 12 13 11 10 11 11 10 9 9 10 11 12 12 10 10 10 11 12 12
18 19 20 20 21 21 22 22 23 23 22 22 22 21 21 20 20 19 20 20 20 20 19 19 18 17 17 17 17 18 17 17 16 13 10 8 8 7 4 3 4 5 5 4 4 6 7 10 11 9 10 11 9 10 11 11 11 12 14 13 13 13 12 9 4 3 10 13 12 13 14 11 9 10 11 10 9 9 9 11 12 12 10 9 10 11 12 11
16 18 18 19 20 20 21 21 22 22 22 22 21 21 21 21 20 20 20 19 20 19 19 19 18 17 17 17 17 17 17 17 16 12 9 8 8 7 5 3 3 4 5 4 4 6 6 8 11 13 14 13 12 13 12 12 12 12 13 14 13 13 12 9 6 6 10 14 14 13 13 13 10 10 11 10 10 10 10 11 11 11 11 10 10 11 12 9
15 16 17 18 18 19 20 20 21 21 21 21 21 21 21 21 21 21 20 19 19 19 19 19 18 18 18 17 16 17 18 18 15 12 10 9 8 8 6 4 3 3 3 2 2 3 4 3 6 10 12 13 13 13 12 12 13 11 10 11 11 11 13 13 10 7 7 11 13 12 11 11 11 11 11 10 9 9 9 10 10 10 10 10 11 11 11 8
13 14 15 16 17 18 18 19 20 20 20 21 21 20 20 21 21 21 20 20 19 19 19 18 18 18 16 16 16 17 18 16 14 12 12 10 8 8 7 5 4 4 3 3 3 1 5 5 2 5 9 10 10 11 12 11 12 11 10 12 15 15 16 17 14 10 8 10 9 7 7 8 10 10 10 9 7 7 7 8 10 10 10 10 10 9 9 9
12 13 13 14 15 16 17 17 18 19 19 19 20 20 20 20 20 20 20 20 20 19 19 18 18 16 14 16 17 17 16 14 14 14 12 11 8 8 8 6 4 5 6 5 5 3 4 5 3 5 6 7 8 8 10 9 8 10 10 12 14 14 13 12 13 13 11 12 10 9 10 12 12 9 7 7 6 5 6 8 9 10 10 10 10 9 8 8
11 12 12 12 13 14 15 16 16 17 18 18 19 19 19 19 20 20 20 20 20 20 19 18 18 16 15 16 16 15 14 14 15 14 13 11 8 6 7 7 5 6 8 6 4 2 3 3 3 3 1 2 5 6 7 4 3 5 6 6 5 3 4 5 9 10 9 13 16 17 17 16 13 10 7 6 6 5 5 7 9 11 11 10 10 10 9 9
11 11 11 12 12 13 14 15 15 16 16 17 17 18 18 18 19 19 19 19 19 20 19 18 18 17 16 16 14 13 13 14 16 15 14 12 9 6 6 6 4 5 6 7 5 4 4 4 5 3 3 4 2 2 4 4 4 4 4 4 4 5 3 1 2 1 2 9 14 16 15 14 13 12 10 9 8 6 6 8 9 11 12 11 11 10 10 11
12 12 12 12 11 12 12 13 14 15 16 15 16 16 16 17 17 18 18 18 19 19 19 18 18 18 17 16 13 12 12 14 15 15 14 13 10 7 6 5 4 2 4 5 5 5 6 6 5 4 6 7 4 3 4 5 3 4 5 8 12 11 6 4 3 3 1 5 8 11 13 13 13 12 10 9 9 8 9 9 9 11 12 12 13 13 11 10
13 13 13 13 12 12 12 12 13 14 15 15 15 15 15 15 15 16 17 17 18 18 17 17 18 18 17 15 13 11 11 13 14 15 14 12 11 8 6 5 2 1 3 4 5 6 6 6 4 3 6 6 3 4 5 5 4 4 5 9 14 13 9 6 4 3 1 4 8 12 16 16 14 12 11 11 11 11 11 9 8 10 12 13 14 15 13 10
14 14 14 14 14 14 13 12 12 13 14 15 14 14 14 14 14 15 15 16 16 16 16 16 16 17 16 15 14 12 11 12 14 14 13 12 11 8 6 5 2 2 3 4 5 7 7 6 4 4 5 5 4 3 3 5 5 5 6 10 12 12 10 6 2 2 5 7 10 13 16 17 16 14 15 15 14 12 11 9 8 9 10 12 14 15 14 12
14 15 15 15 15 15 14 14 13 13 13 14 14 14 14 14 14 14 14 14 14 14 14 14 14 14 14 14 13 11 11 13 14 13 12 11 10 8 7 5 1 3 3 4 5 7 7 6 5 6 5 5 6 5 6 7 7 7 8 12 13 13 9 4 2 4 7 8 12 14 14 17 17 15 15 15 14 12 10 9 9 9 9 11 13 14 14 13
16 16 16 15 15 15 15 14 14 14 14 14 14 14 14 14 14 14 14 13 13 13 13 14 13 13 13 13 13 12 13 14 12 10 10 10 9 8 8 5 1 1 3 5 6 7 8 8 8 7 5 6 8 8 9 10 9 10 9 10 11 11 6 5 2 2 6 8 12 14 14 17 17 16 15 15 15 13 11 10 11 11 10 11 13 13 13 12
18 18 18 17 17 16 16 15 15 15 15 14 14 14 14 14 14 14 14 14 14 13 12 12 12 13 13 12 13 14 14 13 11 10 9 10 9 8 8 5 2 0 2 3 5 7 8 10 9 9 8 8 10 10 10 10 10 11 10 9 8 7 5 5 4 5 7 8 10 14 16 17 16 16 16 16 17 16 14 13 13 13 12 13 13 12 12 12
19 19 20 20 19 19 18 17 16 16 16 15 14 14 15 15 14 13 13 13 14 14 13 12 12 12 12 12 13 15 14 13 12 10 8 9 8 7 8 7 5 2 1 2 4 7 9 9 9 9 9 9 11 11 11 11 10 9 9 7 5 5 6 6 2 4 6 8 12 16 17 16 15 16 16 16 18 18 18 16 16 16 15 15 14 12 11 12
20 20 21 21 21 21 20 19 18 17 16 16 15 15 15 15 15 14 13 13 14 13 13 13 12 11 11 11 13 14 13 13 11 9 9 9 7 6 8 7 7 5 3 3 5 7 8 8 9 8 7 8 11 12 10 9 9 9 6 3 6 7 8 10 9 5 4 7 11 13 14 15 16 16 17 17 19 20 20 19 18 17 17 16 15 13 13 14
20 20 21 21 21 22 21 20 20 19 18 16 16 16 16 16 16 15 14 13 13 13 12 12 12 10 10 11 13 13 13 13 11 11 11 8 6 5 6 6 6 6 6 5 6 6 6 6 7 6 7 9 11 10 5 5 6 9 7 4 8 9 10 11 13 10 2 6 12 14 15 18 19 18 19 20 22 23 21 20 19 19 19 18 17 16 15 15
20 20 21 21 21 21 21 21 21 20 19 18 17 17 17 16 15 15 14 12 12 12 11 11 11 10 11 11 11 12 12 12 12 11 9 7 6 5 5 5 6 7 6 7 7 7 6 5 3 4 7 10 11 6 3 5 6 9 11 9 9 10 11 15 18 14 8 10 16 19 20 22 24 23 23 22 22 22 20 21 21 21 21 20 20 19 17 16
21 21 21 21 22 22 21 21 21 20 19 19 18 18 18 17 16 15 14 13 12 12 11 11 11 10 12 12 11 11 10 10 10 8 5 6 6 5 4 4 4 4 4 6 7 7 6 4 3 4 7 9 8 4 3 6 7 9 13 13 13 13 14 19 23 19 15 16 20 23 25 27 30 30 27 24 23 23 23 23 22 20 21 21 20 18 17 17
22 22 22 22 22 22 22 21 20 20 20 20 20 19 19 18 17 15 13 13 13 13 12 12 12 11 12 13 11 10 8 7 7 6 5 7 7 6 5 4 3 3 3 3 4 5 5 3 3 5 6 7 6 5 6 6 6 8 13 14 14 16 17 19 23 23 19 19 23 26 27 30 31 30 27 25 26 28 27 24 21 20 21 22 20 18 18 18
23 22 23 23 23 23 23 22 21 21 20 20 20 20 20 19 18 17 15 13 14 14 13 12 12 11 11 11 10 9 8 6 7 7 8 8 8 7 7 6 6 6 5 5 4 3 3 4 4 4 5 6 6 8 9 8 7 10 13 14 14 15 17 17 16 19 19 18 22 25 26 29 31 29 27 27 29 31 29 25 21 20 21 22 19 17 17 17
24 23 23 24 24 24 23 22 21 21 21 20 20 20 20 19 18 18 16 14 14 14 13 12 11 10 10 10 9 9 8 8 8 8 9 9 8 8 8 7 8 8 7 6 6 4 3 4 4 4 3 5 7 9 11 10 10 13 14 14 15 15 15 15 14 13 13 14 18 22 24 28 29 27 25 24 24 24 24 23 22 21 21 21 19 16 17 18
25 24 23 24 25 25 24 23 22 22 21 21 21 20 20 19 19 19 18 16 15 15 14 13 11 10 11 10 9 10 9 10 9 8 10 10 8 8 8 8 8 8 9 8 7 5 5 5 4 4 4 5 7 9 10 10 11 14 15 15 15 14 12 14 15 15 15 13 12 17 21 22 23 22 23 23 20 20 20 20 21 21 20 21 22 21 22 22
26 25 24 24 25 25 25 24 23 22 21 21 20 21 20 20 20 20 19 17 16 16 15 14 13 12 11 11 10 10 9 10 10 11 11 10 9 9 8 8 8 8 9 10 9 7 5 5 4 5 6 5 5 7 9 10 12 13 14 15 14 12 11 13 14 16 19 17 14 16 21 21 20 22 24 24 21 18 17 17 18 18 18 19 22 24 24 23
28 27 26 25 25 26 26 26 24 23 22 21 20 20 20 20 20 21 21 18 16 17 16 15 15 14 12 13 12 10 9 9 10 12 13 11 9 8 7 7 8 8 9 10 11 9 7 7 6 6 8 7 6 7 9 11 13 12 12 13 14 13 14 14 15 17 19 18 15 17 21 21 20 21 22 21 19 16 14 15 15 16 16 17 19 21 21 21
31 29 27 27 27 27 27 26 25 24 23 21 20 20 20 20 20 21 22 20 17 18 18 17 16 15 13 13 13 12 11 11 10 12 13 11 10 9 7 6 8 8 9 10 10 8 8 8 8 8 8 8 8 9 10 12 13 12 11 12 13 14 16 16 17 18 18 17 17 19 21 20 19 20 20 19 19 17 15 15 16 16 16 16 17 18 18 18
33 32 30 29 28 28 27 27 26 25 24 22 21 20 20 20 20 22 22 21 20 19 19 18 16 16 16 14 13 14 14 13 11 12 11 10 11 10 8 7 8 9 10 11 10 9 10 10 10 11 10 8 9 10 10 10 12 12 12 13 13 14 16 16 18 19 19 18 19 20 20 20 19 19 20 21 21 20 18 18 18 17 15 15 15 16 17 17
36 34 32 31 30 29 28 27 27 25 24 23 22 21 20 19 20 22 22 22 21 19 19 20 18 16 15 15 15 15 16 16 14 12 11 10 11 11 10 8 9 10 12 12 11 11 12 12 10 11 12 10 9 10 11 11 11 12 14 15 14 14 15 16 17 20 20 19 21 21 20 19 17 17 19 21 22 22 20 20 19 19 18 15 15 15 16 17
37 35 33 32 31 30 29 28 27 26 25 24 23 21 20 20 20 21 23 23 21 20 20 21 21 18 14 14 16 17 17 18 17 16 14 11 9 10 10 9 9 11 12 11 11 11 11 12 12 10 10 10 9 11 13 13 12 14 16 16 16 17 17 17 17 19 19 18 20 21 19 19 18 17 18 20 22 23 21 19 19 19 19 16 14 14 15 17
37 35 33 32 31 30 30 29 28 26 25 24 23 22 21 21 20 21 23 24 22 20 20 21 22 21 18 15 16 19 19 19 19 19 19 15 10 10 11 11 11 12 13 12 11 10 10 12 13 12 11 10 10 12 14 15 15 16 18 18 17 18 19 18 17 18 17 17 17 19 20 21 20 18 18 19 21 21 20 19 17 16 15 14 13 13 15 16
35 34 33 32 31 30 29 29 28 27 26 25 23 22 21 21 20 22 24 25 24 22 20 20 21 21 20 18 18 20 21 21 21 20 21 20 15 13 14 14 15 16 16 15 13 11 10 11 13 14 14 13 13 14 14 14 14 16 18 19 19 20 20 19 19 19 19 18 16 17 19 22 22 20 19 20 20 19 18 18 16 15 13 12 12 13 14 15
35 34 34 34 32 30 29 29 29 27 27 25 24 22 21 21 21 22 24 24 25 25 22 21 22 21 20 18 17 21 23 23 23 22 22 22 18 15 15 15 18 21 20 18 17 15 12 10 12 14 16 17 17 17 16 14 13 14 17 19 21 22 22 22 22 21 21 21 18 16 17 20 22 22 20 20 20 19 19 18 17 16 13 12 12 13 14 14
34 33 34 35 33 30 29 29 29 29 28 27 25 23 21 21 22 23 24 25 26 27 24 22 22 22 21 19 17 21 24 24 23 23 23 23 21 17 17 17 18 22 23 20 19 18 15 12 12 14 17 17 17 19 19 17 16 17 18 20 21 22 24 24 23 23 23 23 20 18 18 19 21 21 20 20 20 20 20 19 18 17 15 13 13 13 14 14
34 34 34 35 33 31 30 29 29 29 29 28 27 25 23 22 23 24 25 27 27 27 25 23 21 21 22 22 20 21 23 24 24 24 23 24 23 19 18 19 20 22 25 24 21 20 19 16 14 15 19 19 17 17 19 18 17 19 20 21 22 22 23 23 23 23 24 24 23 21 20 20 20 21 20 19 19 20 19 19 19 19 17 15 14 14 14 15
37 36 35 34 33 32 31 30 30 30 30 30 28 26 25 24 24 25 26 28 28 26 25 24 22 21 21 22 21 21 23 24 25 25 24 25 24 21 20 21 22 23 26 27 25 23 23 21 18 16 21 24 20 17 18 17 18 21 21 22 23 24 24 24 24 24 25 26 26 25 22 19 19 19 19 19 19 18 18 19 20 20 19 18 18 17 16 16
40 38 36 35 34 33 32 32 32 32 31 30 29 28 27 25 25 26 27 28 28 28 27 25 24 23 22 22 22 22 24 26 26 25 25 25 25 24 22 22 24 25 27 29 28 27 26 26 24 19 21 25 23 19 19 18 19 21 22 21 23 24 25 25 25 25 27 27 27 27 24 18 17 18 18 19 19 19 20 21 21 21 21 20 20 19 19 20
40 38 37 36 35 35 34 34 34 33 32 31 30 30 29 28 27 27 28 29 28 29 29 27 26 24 23 23 23 24 26 27 28 27 27 26 26 26 25 25 25 26 28 30 31 31 30 30 30 26 22 22 23 23 22 22 21 22 24 23 23 24 24 26 27 26 27 27 27 29 26 17 16 19 20 19 18 19 20 21 21 22 22 21 21 22 23 24
41 39 39 38 37 36 36 36 35 34 33 32 31 31 31 31 29 28 29 29 29 30 30 29 28 26 25 24 23 25 27 28 28 29 29 28 27 27 27 28 27 26 27 30 32 33 33 32 32 31 27 23 23 25 25 25 25 25 27 26 25 25 24 25 26 25 26 26 26 30 27 18 16 21 23 23 21 20 20 20 21 22 21 21 21 22 23 24
42 40 40 39 38 38 37 37 37 36 35 34 33 33 33 32 31 30 30 30 31 31 31 31 30 29 27 26 25 26 28 28 29 28 29 29 29 29 28 28 28 27 27 30 33 35 35 35 35 34 31 27 24 25 27 28 29 29 29 28 29 28 26 26 26 26 26 25 25 29 28 21 18 21 24 26 25 22 21 21 21 21 20 20 20 21 23 24
43 42 41 41 39 38 38 37 37 36 35 34 34 34 34 33 32 31 31 31 32 32 32 33 32 31 30 29 27 28 29 30 30 29 28 29 30 31 30 28 28 29 29 31 36 36 35 36 37 36 35 30 25 24 27 30 33 32 31 30 30 31 30 29 28 28 28 26 25 28 27 22 22 23 24 27 27 25 24 22 21 20 19 19 19 20 22 23
46 45 44 43 41 39 39 38 37 36 34 35 35 35 34 33 33 33 32 32 32 32 33 34 34 33 33 32 31 29 29 30 32 31 29 29 31 31 30 28 28 30 32 35 37 37 36 38 39 39 38 34 29 25 25 29 33 35 33 33 33 32 32 31 30 31 30 28 29 29 27 26 26 25 26 27 28 27 25 23 22 21 19 18 18 20 22 22
49 48 47 45 43 42 41 41 39 37 36 37 37 36 35 34 34 35 34 33 33 33 34 35 35 34 34 35 34 32 31 31 33 34 32 32 32 31 31 30 29 31 34 37 38 38 38 39 40 39 38 36 32 28 25 27 32 35 35 35 36 34 33 32 33 32 30 30 33 30 27 29 28 26 28 29 28 29 28 25 24 22 20 19 19 21 23 23
51 51 50 48 45 44 43 42 40 38 37 37 36 36 36 36 36 36 35 35 35 35 35 36 37 36 35 35 36 35 33 33 34 34 35 34 34 33 32 31 30 32 36 38 39 38 37 39 39 38 37 35 32 29 25 25 30 35 36 37 37 35 33 33 34 33 31 32 33 28 28 31 29 27 30 31 30 31 31 29 26 24 22 21 20 21 23 24
54 54 52 49 47 45 43 43 41 40 38 37 37 38 38 37 36 36 36 36 35 35 36 37 37 37 37 37 37 36 35 35 35 35 36 36 36 35 33 31 32 35 38 39 39 38 38 38 39 38 38 35 34 32 27 25 28 32 35 36 36 34 34 34 35 34 32 32 31 27 29 32 29 27 30 32 32 33 33 31 28 26 24 22 21 22 22 23
55 54 52 49 48 46 45 44 43 41 40 39 39 39 38 37 37 37 37 36 36 37 38 38 38 38 38 40 40 39 37 37 38 38 37 37 37 36 34 32 32 36 37 38 38 39 40 39 38 39 40 37 36 34 30 28 29 32 34 35 33 32 34 36 36 34 33 32 31 29 32 32 27 26 29 30 31 33 34 32 29 27 25 22 22 22 22 23
54 53 51 50 49 47 46 45 44 43 42 41 40 39 39 38 38 39 39 38 38 38 39 39 40 40 41 42 42 42 41 40 41 40 38 38 37 37 37 35 34 35 36 37 38 40 41 40 39 40 41 40 39 35 32 31 32 33 35 33 29 30 34 36 35 33 33 34 33 32 33 30 25 26 29 29 30 32 33 33 31 29 26 24 23 22 21 21
52 52 51 50 49 48 47 46 45 45 44 43 41 40 39 39 39 40 40 40 39 39 39 40 41 42 42 43 43 44 44 44 43 41 38 38 39 39 40 39 38 36 35 36 38 39 41 42 41 41 41 41 41 38 33 32 34 36 35 31 28 30 33 34 33 33 33 34 34 33 31 26 24 27 30 29 28 30 30 31 31 30 28 25 24 23 22 21
53 52 51 51 50 49 49 48 47 46 45 44 43 41 41 40 40 41 42 41 41 41 41 42 43 43 43 43 44 45 45 44 43 41 39 39 40 41 42 42 42 40 38 38 39 40 42 42 42 43 43 42 43 41 36 34 37 37 32 27 27 30 31 30 31 32 32 32 33 32 28 25 24 26 27 27 27 27 28 28 29 29 28 26 25 24 23 22
Wind_Direction
35 33 32 29 27 25 23 23 22 22 23 25 27 27 26 23 20 18 15 13 14 15 15 15 14 13 11 10 8 6 4 359 355 352 349 350 357 358 347 9 80 91 97 113 132 142 145 165 180 177 174 175 181 183 188 199 203 205 207 204 184 166 179 185 181 188 203 235 309 327 322 290 256 248 265 254 255 255 260 266 267 272 273 278 282 286 288 284
35 35 33 31 29 28 26 24 23 22 22 24 26 27 27 25 22 19 17 16 16 16 17 16 15 14 14 13 11 9 7 3 359 357 356 359 5 4 2 60 91 91 93 110 132 136 136 151 176 184 180 176 178 185 192 196 196 194 185 186 187 180 185 184 173 26 329 308 313 327 316 292 268 252 271 281 275 265 262 270 282 287 280 282 287 288 291 290
36 35 34 32 30 29 28 26 25 24 22 22 24 26 27 26 24 21 18 17 18 18 18 18 16 15 16 16 15 13 10 6 3 2 4 6 7 13 36 90 99 95 93 110 130 142 145 143 154 185 194 185 178 183 193 196 196 190 175 170 178 191 196 192 188 24 333 305 310 318 299 284 281 265 276 297 293 281 275 282 305 306 290 285 288 290 293 294
36 36 35 32 30 30 29 28 26 25 24 23 23 24 25 25 25 23 20 18 18 20 20 19 18 17 17 18 17 16 12 9 9 8 10 8 10 27 68 107 110 105 102 114 125 141 151 138 135 177 208 202 184 177 188 196 195 191 179 177 178 181 188 197 219 0 320 297 289 289 283 269 273 268 276 301 298 289 287 292 308 311 300 291 290 292 292 295
37 37 36 34 32 30 29 28 27 26 25 24 23 22 22 22 23 23 23 20 18 19 20 20 20 20 20 20 19 19 15 12 13 12 14 12 16 37 79 117 120 117 110 117 130 137 148 140 130 158 205 203 184 170 187 200 198 194 181 182 187 179 180 179 95 352 304 286 258 254 261 254 260 262 270 294 303 304 303 302 309 309 303 299 299 296 296 302
36 36 36 35 33 31 29 29 28 27 26 26 25 23 22 20 20 21 23 22 19 19 20 21 21 21 22 23 22 21 18 18 17 16 19 20 24 42 75 115 129 124 116 117 132 140 148 146 139 160 191 188 178 175 188 199 199 200 184 180 192 188 187 179 151 300 273 258 247 248 247 241 246 256 271 294 310 315 309 302 306 303 299 301 304 302 305 312
34 33 33 34 32 31 29 28 28 27 27 26 25 24 23 21 19 19 21 22 21 20 21 21 21 21 23 25 25 23 23 23 20 18 24 30 33 46 70 102 130 133 132 134 143 153 146 150 157 169 184 182 179 182 186 189 190 195 187 185 193 195 198 191 183 227 254 250 245 247 245 243 248 260 279 296 304 308 307 304 302 301 300 302 307 308 308 311
29 29 29 30 30 29 28 27 26 26 27 26 25 25 23 22 20 19 19 20 21 21 23 23 20 21 22 23 24 25 27 26 22 21 28 36 37 45 67 91 118 130 141 124 138 161 117 123 170 173 181 184 184 186 186 185 182 182 183 187 190 193 205 209 205 210 253 261 246 241 243 248 254 265 281 291 302 304 302 301 296 299 303 306 313 310 304 300
23 24 24 25 25 25 25 24 23 23 24 25 24 24 23 22 21 20 19 19 20 21 23 24 22 23 22 21 24 27 28 26 25 26 31 39 40 41 57 81 104 116 109 38 6 56 70 45 81 163 180 191 194 188 188 189 178 176 179 185 191 195 207 217 217 210 231 257 257 252 260 267 266 273 282 286 296 302 299 296 292 294 300 308 323 322 306 293
16 17 19 20 20 19 19 19 19 19 20 22 22 22 23 22 22 21 20 20 20 20 22 24 24 25 24 25 25 26 28 28 29 30 31 39 46 44 51 70 99 113 104 63 16 41 82 46 61 159 178 197 211 195 197 204 181 182 186 188 198 207 218 230 233 230 236 254 265 273 281 282 279 281 285 283 283 296 302 296 291 290 295 309 326 331 318 302
6 8 12 14 15 15 14 13 13 13 15 17 19 19 21 21 21 22 21 21 21 19 21 23 22 21 26 30 25 22 27 32 33 32 31 39 49 56 58 65 91 117 122 114 73 93 138 88 90 148 157 194 213 198 200 203 155 178 187 182 196 223 251 262 245 243 260 269 264 263 270 276 279 279 274 275 278 292 304 297 293 289 294 306 315 318 315 317
352 355 360 4 8 10 10 9 7 6 8 11 14 15 17 19 20 21 21 22 23 21 19 22 21 18 23 31 26 18 22 33 37 33 31 36 44 56 70 72 80 118 140 143 132 125 137 129 128 134 83 100 135 177 176 139 114 146 136 119 79 53 29 323 234 212 272 270 267 264 269 276 281 282 273 268 271 277 288 290 289 289 294 301 306 305 306 315
343 343 346 350 356 2 5 5 3 1 0 3 7 9 12 16 18 19 20 22 24 23 19 19 20 17 20 25 24 18 19 34 40 37 32 31 38 48 72 85 78 119 145 149 143 118 113 136 158 141 113 113 90 52 122 138 157 159 122 95 82 73 71 75 87 81 106 269 292 299 303 297 282 279 272 269 267 259 263 274 282 291 299 301 305 304 303 315
337 337 338 338 341 347 354 358 358 357 354 355 359 2 6 9 14 18 19 21 25 25 21 19 18 16 16 17 21 20 20 35 42 40 36 32 35 40 62 93 105 164 154 157 150 128 129 155 175 146 126 135 118 71 123 165 193 176 132 105 92 85 78 75 120 130 309 306 336 337 332 320 297 287 284 282 276 258 254 265 282 296 303 304 303 304 302 307
329 332 334 333 333 334 339 345 350 352 350 350 353 356 358 1 7 13 17 20 24 26 24 23 20 15 12 15 21 18 17 35 42 40 38 36 36 33 48 84 135 197 169 169 157 146 154 158 155 159 149 155 151 107 146 179 182 169 139 125 117 109 91 58 95 88 0 346 351 347 340 331 316 302 290 282 275 262 255 261 278 288 293 296 294 298 299 295
323 326 328 330 330 329 329 333 338 344 346 346 348 350 352 354 357 3 10 17 23 24 23 27 24 14 12 18 25 20 18 31 39 39 36 36 36 30 38 61 127 197 172 177 174 157 157 154 154 173 172 170 167 158 183 188 183 181 157 144 144 141 121 55 88 88 29 7 350 343 336 327 321 309 290 279 272 264 260 262 271 272 273 282 284 288 293 290
318 321 323 325 326 326 326 327 330 336 341 343 344 346 346 348 350 352 359 8 18 21 20 26 23 11 12 20 25 24 25 30 36 38 37 35 31 24 29 39 67 186 179 189 188 168 166 170 173 183 180 183 189 191 198 201 204 201 178 160 163 169 148 36 31 63 22 358 337 328 319 314 311 306 290 275 271 268 267 267 268 267 264 269 274 279 287 288
316 317 320 321 322 322 323 325 326 330 336 338 340 343 342 343 344 345 349 356 7 11 13 22 21 9 10 20 25 25 27 31 36 33 33 35 25 18 21 22 24 74 209 213 196 179 187 193 188 190 192 197 205 208 207 210 218 213 203 190 173 167 138 64 9 336 343 335 324 306 297 300 301 305 300 287 283 281 278 273 267 265 262 263 269 276 284 286
314 315 317 319 320 319 321 323 323 326 331 334 336 340 340 338 338 338 342 349 357 2 2 10 20 11 4 13 24 27 27 30 32 27 29 34 20 12 19 15 6 359 261 251 213 189 197 212 211 206 209 214 219 224 217 218 228 220 220 213 163 142 155 159 212 306 312 305 305 295 290 297 297 298 299 293 289 285 282 279 272 266 264 266 270 274 279 281
311 313 315 317 318 317 319 322 323 324 328 330 332 335 338 336 334 334 339 345 348 354 356 358 12 12 357 5 21 26 28 30 29 23 25 27 11 8 20 15 358 343 317 274 237 210 200 207 221 235 239 235 243 250 233 223 231 218 226 215 156 158 167 180 205 217 282 288 279 282 285 285 283 284 286 285 284 284 286 286 280 271 269 269 269 268 268 270
308 310 312 314 315 315 317 320 322 324 326 328 331 332 335 336 335 332 334 339 338 344 351 352 3 6 352 2 21 23 25 28 28 22 18 9 354 8 19 13 357 340 319 291 258 236 224 208 218 242 248 249 261 267 231 193 213 210 219 201 174 178 168 184 204 190 211 266 243 253 262 263 266 270 277 284 289 291 290 288 284 276 270 267 266 265 263 266
304 307 309 310 311 312 314 317 319 322 324 325 327 328 330 334 337 332 329 331 329 335 343 346 354 356 347 358 17 22 21 22 26 25 9 340 339 6 12 7 1 349 321 290 266 247 250 243 242 239 230 246 263 272 191 170 188 201 217 208 188 191 181 198 213 196 194 229 239 254 259 261 263 264 269 278 287 292 288 285 285 281 275 271 270 269 267 266
301 303 304 305 306 308 309 312 314 316 319 321 322 323 327 332 336 333 329 325 322 329 335 335 342 345 343 352 6 17 20 19 22 24 352 326 341 358 356 2 355 328 294 281 270 257 268 282 285 259 240 249 263 274 230 207 205 205 220 219 203 206 202 206 218 218 214 220 232 246 255 262 265 265 271 279 287 291 289 285 283 283 281 277 272 270 269 267
296 298 299 300 302 303 304 307 310 311 314 317 319 321 326 329 331 332 330 324 320 325 328 328 334 338 340 347 354 1 8 16 21 16 352 343 350 352 347 349 332 301 292 309 304 281 288 299 274 267 264 268 269 265 255 247 246 229 233 238 223 220 228 224 224 228 229 227 232 239 247 257 262 264 270 277 282 285 285 281 276 281 282 275 268 263 262 264
291 292 294 295 297 299 300 302 305 307 309 313 315 318 321 324 327 327 328 326 321 322 325 328 331 332 333 338 341 341 346 360 10 6 355 351 351 353 351 343 334 331 338 341 337 320 291 272 268 277 283 285 280 270 267 267 263 253 254 261 252 244 255 262 255 245 239 236 243 249 249 252 261 269 274 275 274 274 275 273 270 279 282 278 273 266 264 268
288 289 291 291 292 294 295 298 301 303 305 307 310 313 316 319 322 321 322 324 320 318 319 322 324 322 322 327 331 331 335 346 357 356 350 350 351 350 347 341 335 336 341 338 332 329 288 273 283 299 297 288 283 276 278 281 275 274 282 284 278 277 282 290 294 279 262 249 251 259 256 252 260 272 281 281 274 268 270 272 274 280 281 279 275 273 278 281
286 287 287 287 289 290 291 294 296 298 300 303 305 307 310 314 315 315 316 320 318 314 313 316 318 316 317 321 328 330 333 340 344 343 343 346 344 341 340 339 337 335 333 329 324 318 306 300 299 294 279 268 275 284 292 295 288 285 291 293 290 295 299 298 296 289 281 274 269 271 268 264 269 281 288 287 281 275 274 277 283 286 284 280 276 276 280 280
284 284 284 284 286 287 289 290 292 293 295 298 300 302 305 308 310 309 310 315 315 311 311 314 315 316 317 320 325 328 330 335 335 332 335 336 332 331 331 331 334 335 329 320 314 309 301 299 296 285 275 271 282 295 293 285 278 276 280 286 288 289 288 286 285 281 281 285 288 284 282 283 287 292 291 287 285 287 287 287 290 292 291 285 281 279 278 277
282 282 282 283 284 285 286 287 289 291 292 294 296 298 301 303 304 304 305 309 310 308 310 311 312 315 319 318 317 316 319 329 329 325 325 325 319 315 317 322 323 330 331 315 309 310 302 296 298 283 272 278 283 277 272 268 268 270 271 274 278 276 274 273 274 275 279 286 291 286 286 287 286 288 289 287 288 290 292 293 293 294 292 287 285 283 281 279
280 279 280 280 281 282 283 285 287 289 291 293 294 295 298 299 299 298 299 302 304 304 306 307 308 312 314 311 309 308 314 324 325 321 319 314 306 302 303 309 310 321 329 313 307 311 301 295 300 293 278 272 269 261 257 259 266 273 276 277 279 278 279 280 281 280 280 286 288 285 286 287 287 289 292 292 293 294 295 295 293 293 293 291 288 286 284 281
277 276 276 276 277 279 281 283 285 287 289 291 292 293 295 295 294 294 295 296 296 298 301 303 305 307 307 305 303 305 311 316 315 314 312 304 297 294 292 298 308 320 326 319 310 299 292 297 302 303 302 290 276 267 259 259 266 273 277 279 280 279 280 283 283 282 283 285 284 284 287 291 295 298 298 298 299 299 297 295 293 296 299 295 287 283 286 287
274 274 273 273 273 275 278 280 282 285 287 288 290 291 291 291 289 290 291 290 291 295 299 300 301 302 302 301 300 302 305 307 305 302 302 299 293 290 291 303 313 313 314 315 309 296 294 301 302 306 314 308 288 279 276 273 272 273 276 279 282 283 284 284 281 281 283 285 286 287 288 291 295 297 296 298 299 296 294 292 293 297 299 293 285 285 287 288
274 272 271 271 271 273 275 277 279 281 283 285 287 288 288 287 286 287 288 287 289 293 296 297 299 299 295 292 292 294 296 298 298 295 296 295 287 282 286 295 298 295 296 297 297 292 287 288 291 301 310 300 281 280 284 282 277 279 284 287 289 289 286 283 280 279 281 284 286 288 287 288 290 290 292 296 297 294 292 291 292 295 295 290 287 287 284 283
273 271 269 269 270 271 272 274 276 278 280 281 283 285 284 283 284 284 284 286 288 290 292 296 298 297 294 287 284 287 290 291 292 293 296 298 295 289 290 293 288 284 286 284 283 282 277 281 291 300 303 296 286 284 286 290 292 292 291 288 283 281 281 281 281 280 280 278 280 285 288 290 289 289 294 298 298 295 292 290 291 292 290 286 284 281 279 281
273 270 268 266 266 268 270 272 274 276 277 278 279 280 281 281 282 281 282 285 288 288 290 291 290 291 292 291 288 288 288 288 289 292 295 299 303 300 296 298 295 292 293 293 290 289 286 286 292 297 300 298 292 288 288 293 297 294 291 288 284 284 288 290 290 288 287 282 277 278 282 286 289 292 298 302 301 297 291 288 287 288 289 287 281 277 279 283
271 270 268 266 264 264 266 269 271 272 273 274 276 277 279 280 278 277 279 283 285 284 284 284 286 287 286 285 283 283 284 285 287 291 292 295 299 299 295 296 296 295 296 296 295 297 296 290 288 292 296 297 297 299 301 303 301 293 286 285 288 292 293 293 292 291 290 288 284 279 278 281 287 293 298 301 301 298 293 287 284 284 287 285 278 274 278 281
270 268 267 265 264 262 263 265 267 269 269 271 272 273 275 275 274 275 277 278 279 282 284 285 288 289 286 283 276 274 280 284 286 288 289 289 291 292 290 287 287 288 290 291 292 295 295 288 283 284 285 286 292 297 302 307 307 298 289 286 286 288 290 291 290 288 287 287 288 288 285 284 286 292 296 297 298 300 297 291 285 280 279 279 278 276 276 277
270 268 266 264 264 262 261 262 264 265 266 266 267 268 269 269 271 273 275 276 278 282 286 288 286 285 286 287 282 275 277 279 279 281 282 282 284 285 282 279 279 281 283 285 285 286 287 280 275 277 278 277 279 284 290 298 297 288 284 286 284 283 287 289 288 286 286 288 291 289 286 286 288 292 295 295 296 299 299 294 287 281 278 277 278 276 276 277
269 267 264 261 261 260 259 260 261 262 262 263 264 265 266 266 267 269 270 274 278 280 282 282 282 282 282 284 284 278 275 273 273 275 276 276 277 278 276 275 276 277 277 280 281 281 281 278 273 274 277 277 276 274 276 281 279 275 277 281 283 285 288 288 287 285 285 288 290 288 286 287 289 291 292 291 293 298 299 296 291 286 283 280 277 274 274 275
267 264 260 258 258 258 258 258 259 261 261 262 263 264 264 263 263 265 268 271 274 276 277 277 278 280 281 282 281 277 274 274 273 272 271 271 273 274 273 270 270 271 274 277 279 279 279 279 276 269 269 277 281 278 275 272 272 276 279 280 281 286 289 288 286 285 286 288 289 288 290 295 296 291 285 284 288 293 296 296 294 289 285 283 282 282 283 284
262 260 258 256 255 256 256 256 256 258 259 260 260 261 262 261 260 261 265 268 271 273 275 275 276 277 278 278 277 275 273 274 275 274 271 269 269 271 270 266 264 265 270 273 276 278 279 280 280 275 270 273 278 278 277 276 277 279 281 278 277 280 282 282 281 281 283 284 286 287 291 300 304 294 286 283 286 289 291 293 292 289 288 290 293 295 296 295
258 258 256 255 254 254 254 254 255 257 257 257 258 258 259 259 258 258 262 265 268 271 272 274 275 274 274 274 272 271 271 272 274 276 275 272 269 267 265 265 265 265 268 272 274 277 278 278 279 278 275 270 269 272 275 276 277 276 277 279 278 276 276 278 279 279 278 279 281 284 289 300 305 295 291 291 292 290 289 289 288 288 288 289 290 291 292 292
255 255 254 254 254 254 254 255 255 256 255 255 255 256 256 258 258 258 261 264 267 269 272 274 274 274 274 272 268 266 268 271 271 272 275 275 272 268 264 263 264 264 264 267 269 271 274 276 277 276 276 272 267 268 272 272 272 271 273 277 278 279 282 283 283 281 276 276 279 282 288 298 297 288 288 291 292 290 287 284 284 283 280 277 280 285 288 289
252 251 251 252 254 255 256 256 255 254 254 254 253 253 254 257 258 258 258 260 264 268 270 272 273 274 274 271 268 266 267 269 269 267 268 270 271 272 269 266 265 265 263 261 263 266 269 273 276 277 277 276 271 266 266 269 272 273 274 274 275 279 282 283 284 282 278 278 278 278 283 291 289 285 286 287 287 285 283 282 283 281 276 272 277 284 287 290
250 250 251 253 254 254 254 253 253 254 254 254 253 253 254 256 258 258 258 258 261 264 267 268 269 271 272 272 271 269 268 269 269 267 264 264 267 269 268 267 264 263 263 262 264 267 269 272 275 278 279 281 280 272 263 263 269 273 274 274 274 276 278 279 280 280 280 281 279 278 283 287 287 288 289 288 287 286 284 285 286 285 281 276 277 281 285 289
250 250 252 253 253 253 252 252 254 255 254 253 254 254 254 254 254 256 258 259 260 261 262 264 265 266 267 270 272 271 269 268 269 269 266 265 265 265 264 264 262 261 262 262 264 267 268 269 271 274 276 280 284 281 267 259 264 268 272 274 274 275 278 279 279 278 280 279 277 281 288 288 288 291 292 291 291 290 288 287 286 285 282 278 278 283 287 289
251 251 251 251 252 253 253 254 254 254 253 253 254 254 254 253 253 254 256 258 259 260 261 263 264 264 264 265 267 268 269 268 267 268 268 267 266 265 264 262 261 261 260 261 265 266 267 269 270 271 273 276 280 280 271 263 263 267 271 273 275 277 278 279 279 279 279 275 275 281 285 284 287 293 293 292 292 289 288 287 285 284 282 280 278 281 285 287
251 250 249 249 252 254 254 254 253 252 252 253 253 253 253 254 254 254 256 258 259 261 262 263 264 266 267 266 265 265 267 267 267 266 267 267 267 268 268 264 261 262 262 262 266 268 268 269 271 272 272 272 272 273 272 270 268 268 270 271 274 278 280 280 278 279 279 277 279 283 281 279 285 292 291 290 289 287 285 284 284 284 284 282 278 277 279 281
251 250 248 248 252 254 254 253 252 251 251 251 251 253 254 255 255 255 256 258 259 261 262 264 265 266 266 267 267 267 267 267 267 267 266 267 268 270 271 267 262 263 265 264 265 267 268 268 268 270 271 271 270 271 272 273 271 268 268 269 273 277 279 278 279 283 284 282 283 283 280 280 287 288 284 282 282 283 284 284 285 285 284 280 274 272 273 275
250 249 249 249 251 252 252 252 252 251 251 251 251 252 253 255 255 256 256 256 257 259 260 262 263 263 264 265 267 268 268 267 266 266 267 269 271 271 272 269 264 262 263 264 263 265 268 268 267 268 269 270 270 270 269 269 269 266 264 266 271 275 275 277 280 284 283 281 280 279 279 283 289 285 278 276 277 280 283 285 287 287 286 280 274 272 274 276
249 250 251 251 251 250 249 249 249 249 250 251 252 252 253 254 256 257 257 258 258 258 259 260 261 262 264 265 266 267 268 269 270 271 272 273 273 273 272 271 268 262 259 259 260 261 264 266 268 268 269 269 269 268 267 266 265 262 261 265 271 273 274 277 279 279 277 277 278 279 281 286 288 281 278 278 277 278 280 282 283 284 284 281 276 275 277 278
250 251 252 252 251 249 248 247 246 247 248 250 252 253 254 255 256 258 259 260 261 261 260 261 261 262 263 264 265 267 269 271 274 275 275 273 272 271 270 269 267 265 261 257 256 257 259 261 263 265 266 267 268 267 267 265 261 259 261 268 272 272 275 277 275 273 274 276 279 280 282 286 283 278 278 278 277 277 278 280 280 280 280 278 273 271 273 274
Height
5847 5846 5844 5843 5841 5840 5839 5837 5836 5835 5833 5832 5831 5829 5828 5826 5825 5824 5823 5821 5820 5818 5817 5815 5814 5812 5811 5809 5807 5806 5805 5803 5802 5801 5800 5799 5798 5797 5797 5796 5796 5796 5796 5796 5796 5797 5797 5798 5798 5799 5799 5800 5802 5803 5804 5806 5808 5810 5813 5816 5817 5817 5818 5817 5817 5816 5814 5815 5816 5816 5817 5819 5820 5822 5823 5824 5824 5824 5825 5825 5826 5825 5825 5824 5823 5823 5823 5822
5848 5846 5845 5844 5842 5841 5839 5838 5837 5835 5834 5833 5831 5830 5828 5827 5826 5824 5823 5821 5820 5818 5817 5815 5814 5812 5811 5809 5807 5806 5804 5803 5802 5801 5800 5799 5798 5797 5797 5797 5797 5797 5797 5797 5797 5797 5797 5798 5799 5800 5801 5800 5802 5804 5805 5806 5808 5810 5813 5816 5817 5817 5817 5816 5816 5816 5813 5813 5815 5816 5817 5819 5820 5822 5823 5824 5823 5823 5824 5825 5825 5824 5824 5823 5822 5822 5822 5820
5848 5847 5846 5844 5843 5841 5840 5839 5837 5836 5835 5833 5832 5830 5829 5828 5826 5824 5823 5822 5820 5819 5817 5815 5814 5812 5811 5809 5807 5806 5804 5803 5802 5801 5800 5799 5798 5798 5797 5797 5797 5797 5798 5798 5798 5798 5798 5798 5800 5801 5802 5801 5801 5803 5805 5807 5808 5810 5813 5814 5816 5817 5817 5816 5815 5814 5814 5813 5815 5817 5818 5819 5820 5821 5823 5823 5823 5823 5823 5824 5824 5823 5822 5822 5821 5821 5821 5820
5849 5847 5846 5845 5843 5842 5841 5839 5838 5836 5835 5834 5832 5831 5830 5828 5826 5825 5823 5822 5820 5819 5817 5816 5814 5812 5811 5809 5808 5806 5804 5803 5802 5801 5800 5799 5799 5798 5798 5798 5798 5798 5798 5798 5798 5799 5799 5799 5800 5802 5803 5803 5803 5804 5806 5807 5809 5810 5812 5813 5814 5815 5816 5816 5814 5814 5815 5816 5817 5818 5818 5819 5820 5821 5823 5823 5822 5822 5822 5823 5823 5822 5822 5821 5821 5821 5821 5820
5849 5848 5846 5845 5844 5843 5841 5840 5838 5837 5836 5834 5833 5831 5830 5829 5827 5825 5824 5822 5821 5819 5818 5816 5815 5813 5811 5810 5808 5806 5805 5803 5802 5801 5801 5800 5799 5798 5798 5798 5799 5799 5799 5799 5799 5799 5799 5799 5800 5802 5804 5804 5804 5806 5806 5807 5809 5810 5812 5813 5814 5815 5815 5815 5815 5816 5817 5816 5817 5818 5818 5819 5820 5821 5822 5822 5822 5821 5821 5822 5822 5822 5821 5821 5821 5821 5820 5819
5850 5848 5847 5846 5844 5843 5842 5840 5839 5838 5836 5835 5833 5832 5830 5829 5828 5826 5824 5822 5821 5820 5818 5817 5815 5813 5812 5810 5808 5807 5806 5804 5803 5802 5801 5801 5800 5799 5799 5799 5799 5799 5799 5800 5799 5800 5800 5799 5800 5802 5803 5803 5804 5805 5806 5807 5809 5811 5811 5812 5813 5814 5814 5815 5816 5817 5816 5815 5816 5817 5818 5820 5820 5821 5821 5822 5821 5821 5821 5821 5821 5821 5821 5821 5821 5821 5820 5820
5850 5849 5847 5846 5845 5843 5842 5841 5839 5838 5837 5835 5834 5832 5831 5829 5828 5826 5825 5823 5821 5820 5818 5817 5815 5814 5812 5811 5809 5808 5806 5805 5803 5803 5802 5801 5801 5800 5800 5800 5800 5800 5800 5800 5800 5800 5800 5800 5800 5801 5802 5802 5803 5804 5805 5807 5809 5810 5811 5811 5812 5814 5815 5815 5815 5816 5815 5814 5815 5817 5818 5819 5820 5820 5820 5821 5821 5821 5821 5820 5820 5820 5820 5820 5821 5820 5820 5821
5850 5849 5848 5846 5845 5844 5842 5841 5840 5838 5837 5836 5834 5832 5831 5830 5828 5827 5825 5823 5822 5820 5819 5817 5816 5814 5812 5811 5810 5808 5806 5805 5804 5803 5803 5802 5801 5801 5800 5800 5800 5800 5801 5801 5801 5801 5801 5801 5801 5801 5802 5803 5803 5804 5805 5807 5808 5809 5810 5812 5813 5814 5814 5814 5814 5815 5814 5813 5815 5817 5818 5818 5819 5820 5820 5820 5820 5820 5820 5819 5819 5819 5819 5819 5820 5819 5820 5821
5850 5849 5848 5846 5845 5844 5842 5841 5840 5838 5837 5836 5834 5833 5831 5830 5828 5827 5825 5824 5822 5820 5819 5818 5816 5815 5813 5812 5810 5809 5807 5806 5805 5804 5803 5802 5802 5802 5801 5801 5801 5801 5801 5802 5802 5802 5802 5802 5803 5803 5803 5804 5804 5804 5806 5806 5807 5808 5809 5810 5811 5811 5812 5813 5814 5814 5813 5812 5814 5816 5817 5818 5819 5819 5820 5820 5820 5820 5819 5819 5818 5818 5818 5818 5819 5819 5819 5820
5850 5849 5847 5846 5845 5844 5842 5841 5840 5838 5837 5836 5834 5833 5831 5830 5828 5827 5826 5824 5822 5821 5819 5818 5817 5815 5814 5812 5811 5809 5808 5807 5806 5805 5803 5803 5802 5802 5802 5801 5801 5801 5802 5803 5803 5803 5803 5804 5804 5804 5804 5804 5805 5806 5806 5807 5807 5807 5808 5809 5810 5811 5812 5813 5815 5814 5813 5812 5813 5814 5815 5816 5817 5818 5819 5818 5819 5819 5819 5818 5817 5818 5818 5818 5818 5819 5819 5820
5849 5848 5847 5846 5845 5843 5842 5841 5840 5838 5837 5836 5834 5833 5831 5830 5829 5827 5825 5824 5822 5821 5819 5818 5817 5816 5814 5812 5811 5810 5809 5808 5806 5805 5804 5803 5803 5803 5802 5802 5802 5802 5802 5802 5803 5804 5804 5805 5805 5805 5805 5805 5806 5806 5807 5807 5807 5808 5809 5810 5811 5812 5813 5814 5815 5814 5813 5812 5812 5813 5814 5815 5816 5817 5817 5817 5818 5819 5819 5818 5817 5817 5817 5818 5818 5819 5819 5820
5849 5848 5846 5845 5844 5843 5842 5841 5839 5838 5837 5836 5834 5833 5831 5830 5828 5827 5825 5824 5822 5821 5819 5818 5817 5816 5814 5813 5812 5811 5810 5809 5807 5805 5804 5803 5803 5803 5802 5802 5802 5802 5802 5802 5803 5803 5804 5805 5806 5805 5806 5806 5807 5807 5807 5808 5808 5808 5809 5810 5812 5812 5813 5813 5814 5814 5813 5811 5810 5812 5814 5815 5815 5815 5816 5816 5817 5818 5818 5818 5817 5817 5817 5818 5818 5819 5819 5820
5848 5847 5846 5845 5844 5842 5841 5840 5839 5838 5836 5835 5834 5833 5831 5830 5828 5827 5826 5824 5822 5821 5819 5818 5817 5815 5814 5813 5813 5812 5811 5809 5807 5806 5805 5804 5803 5803 5803 5803 5803 5803 5803 5802 5803 5803 5804 5805 5806 5806 5806 5806 5807 5807 5808 5808 5808 5808 5809 5810 5811 5812 5812 5812 5813 5813 5813 5811 5810 5811 5813 5814 5814 5814 5814 5814 5815 5816 5817 5817 5817 5816 5816 5817 5817 5818 5819 5820
5847 5846 5845 5844 5843 5842 5841 5839 5838 5837 5836 5835 5834 5833 5831 5830 5828 5827 5826 5824 5822 5821 5819 5818 5816 5815 5814 5814 5813 5812 5812 5809 5807 5806 5806 5805 5804 5803 5803 5803 5803 5804 5803 5803 5803 5803 5804 5805 5806 5806 5806 5806 5807 5807 5808 5808 5808 5808 5809 5810 5810 5811 5812 5813 5813 5813 5812 5811 5810 5811 5812 5812 5813 5813 5812 5812 5813 5814 5815 5816 5816 5816 5815 5816 5816 5817 5819 5820
5846 5845 5844 5843 5842 5841 5840 5839 5838 5836 5835 5834 5833 5832 5831 5830 5828 5827 5826 5824 5823 5821 5820 5818 5817 5815 5814 5814 5812 5812 5812 5810 5808 5807 5806 5805 5804 5803 5803 5802 5803 5804 5803 5803 5803 5803 5804 5805 5806 5806 5805 5806 5806 5807 5808 5808 5807 5808 5808 5809 5810 5811 5812 5812 5812 5812 5811 5810 5809 5810 5811 5812 5812 5812 5811 5811 5811 5812 5813 5814 5815 5815 5815 5815 5815 5816 5818 5820
5845 5844 5843 5842 5841 5840 5839 5838 5837 5836 5835 5833 5832 5831 5830 5829 5828 5827 5826 5824 5823 5821 5820 5819 5817 5816 5815 5813 5812 5812 5812 5809 5808 5807 5807 5806 5805 5804 5803 5803 5803 5804 5803 5803 5803 5803 5804 5804 5805 5805 5805 5805 5806 5806 5807 5806 5806 5807 5807 5808 5809 5810 5810 5810 5811 5812 5811 5809 5808 5809 5810 5811 5811 5811 5810 5809 5809 5810 5811 5812 5813 5814 5814 5814 5814 5815 5816 5818
5844 5843 5842 5841 5840 5839 5838 5838 5837 5836 5834 5833 5832 5830 5829 5829 5828 5827 5826 5825 5823 5822 5820 5819 5817 5817 5815 5813 5812 5812 5810 5809 5808 5808 5807 5806 5805 5805 5804 5803 5803 5803 5803 5803 5803 5803 5804 5803 5803 5803 5804 5804 5805 5805 5805 5805 5805 5806 5806 5807 5807 5808 5808 5809 5809 5810 5809 5808 5808 5808 5809 5810 5810 5810 5809 5808 5807 5807 5809 5810 5811 5812 5813 5813 5813 5814 5815 5816
5843 5842 5841 5840 5839 5838 5837 5837 5836 5835 5834 5833 5831 5830 5829 5827 5827 5826 5825 5825 5823 5822 5821 5819 5817 5817 5816 5813 5811 5810 5810 5809 5809 5808 5807 5806 5806 5805 5804 5804 5804 5803 5803 5803 5803 5803 5803 5802 5802 5802 5802 5803 5803 5803 5804 5804 5804 5805 5805 5805 5807 5807 5807 5808 5808 5808 5808 5808 5808 5808 5808 5809 5809 5808 5808 5807 5806 5806 5807 5809 5810 5810 5811 5811 5812 5813 5814 5814
5842 5841 5840 5839 5838 5837 5836 5836 5835 5834 5834 5833 5831 5830 5828 5827 5826 5825 5824 5824 5823 5822 5821 5819 5817 5817 5816 5814 5811 5809 5809 5809 5808 5808 5807 5806 5806 5805 5805 5804 5804 5804 5803 5803 5804 5803 5803 5802 5802 5801 5801 5802 5802 5803 5803 5803 5804 5805 5805 5805 5806 5807 5808 5809 5808 5807 5807 5807 5807 5807 5807 5807 5807 5807 5807 5806 5806 5805 5806 5807 5808 5809 5809 5810 5811 5811 5812 5813
5840 5839 5838 5837 5836 5835 5835 5834 5834 5833 5833 5832 5831 5830 5828 5827 5825 5824 5823 5822 5822 5821 5820 5819 5817 5816 5816 5814 5810 5809 5808 5808 5808 5808 5807 5806 5806 5806 5805 5804 5804 5804 5804 5803 5803 5803 5802 5802 5802 5802 5802 5802 5802 5802 5803 5803 5803 5803 5804 5805 5806 5807 5808 5808 5807 5806 5806 5806 5806 5805 5805 5804 5804 5805 5805 5805 5805 5805 5805 5805 5806 5807 5808 5809 5810 5810 5811 5811
5838 5838 5837 5836 5835 5834 5833 5833 5832 5832 5831 5831 5830 5829 5828 5827 5825 5823 5823 5822 5821 5820 5820 5819 5817 5817 5817 5814 5811 5809 5808 5807 5807 5807 5806 5806 5807 5806 5804 5804 5804 5804 5803 5803 5803 5803 5802 5801 5801 5801 5802 5802 5802 5802 5802 5802 5802 5802 5803 5804 5805 5806 5808 5807 5805 5804 5804 5805 5804 5802 5803 5802 5802 5803 5804 5804 5804 5804 5804 5804 5804 5804 5805 5807 5808 5809 5809 5809
5837 5836 5835 5834 5833 5832 5831 5831 5830 5830 5829 5829 5828 5828 5827 5826 5825 5823 5822 5821 5820 5819 5819 5818 5817 5817 5816 5814 5811 5809 5808 5807 5807 5806 5806 5807 5806 5805 5804 5804 5803 5803 5803 5803 5803 5802 5802 5802 5801 5801 5801 5801 5801 5801 5801 5800 5800 5801 5802 5803 5804 5804 5805 5805 5804 5803 5803 5804 5802 5800 5800 5799 5800 5801 5802 5803 5803 5803 5803 5803 5802 5802 5803 5804 5805 5806 5807 5807
5835 5834 5833 5832 5831 5830 5830 5829 5829 5828 5828 5827 5827 5826 5825 5825 5824 5823 5821 5820 5819 5819 5818 5817 5816 5815 5815 5813 5811 5810 5808 5807 5806 5806 5807 5807 5806 5805 5804 5804 5803 5803 5803 5803 5802 5802 5802 5802 5801 5801 5801 5800 5800 5800 5800 5799 5799 5799 5800 5800 5801 5801 5801 5802 5802 5802 5802 5802 5802 5800 5798 5797 5797 5798 5799 5800 5800 5800 5801 5800 5800 5801 5801 5802 5802 5803 5804 5804
5833 5832 5831 5830 5829 5828 5827 5827 5827 5826 5826 5825 5824 5824 5823 5823 5822 5822 5821 5819 5818 5817 5816 5816 5814 5813 5813 5812 5811 5810 5809 5808 5807 5807 5807 5806 5805 5804 5804 5803 5803 5803 5803 5803 5802 5801 5801 5801 5801 5801 5801 5800 5800 5799 5798 5798 5798 5799 5798 5798 5799 5799 5798 5799 5800 5801 5801 5801 5800 5800 5799 5797 5795 5796 5797 5797 5797 5797 5797 5797 5798 5798 5798 5798 5798 5799 5800 5800
5830 5830 5829 5828 5827 5826 5825 5825 5825 5824 5824 5823 5823 5822 5822 5821 5820 5819 5819 5818 5817 5816 5815 5814 5813 5812 5812 5811 5811 5810 5810 5808 5807 5806 5806 5805 5804 5803 5803 5803 5802 5802 5802 5802 5801 5801 5800 5800 5800 5800 5800 5800 5799 5798 5798 5798 5798 5797 5796 5796 5797 5797 5797 5797 5798 5799 5800 5800 5799 5799 5799 5796 5793 5794 5795 5795 5795 5794 5794 5794 5795 5796 5795 5795 5796 5796 5796 5797
5828 5828 5827 5826 5825 5824 5824 5823 5823 5822 5822 5821 5821 5820 5820 5819 5818 5817 5817 5817 5816 5814 5814 5813 5813 5812 5811 5811 5810 5809 5809 5807 5806 5805 5805 5804 5803 5802 5802 5802 5802 5801 5801 5801 5801 5800 5800 5799 5799 5799 5799 5799 5798 5797 5797 5797 5797 5796 5795 5796 5796 5796 5796 5796 5797 5798 5798 5799 5798 5797 5797 5796 5794 5794 5793 5792 5792 5791 5791 5791 5792 5793 5792 5793 5793 5793 5794 5795
5825 5825 5825 5824 5823 5822 5821 5821 5821 5820 5819 5819 5819 5818 5818 5817 5817 5815 5815 5815 5814 5813 5812 5812 5812 5811 5810 5810 5809 5808 5807 5806 5805 5804 5804 5803 5802 5801 5801 5801 5801 5801 5800 5800 5799 5799 5799 5798 5798 5797 5797 5797 5797 5796 5796 5797 5796 5795 5795 5795 5795 5795 5795 5795 5795 5795 5795 5795 5796 5794 5793 5793 5793 5792 5790 5789 5789 5789 5789 5789 5789 5790 5789 5789 5789 5790 5791 5792
5822 5822 5822 5821 5820 5819 5819 5818 5818 5818 5817 5817 5817 5816 5816 5815 5815 5813 5813 5813 5812 5811 5811 5810 5810 5809 5809 5807 5807 5806 5805 5805 5804 5803 5802 5802 5801 5800 5800 5799 5800 5800 5799 5799 5799 5798 5798 5797 5797 5796 5796 5796 5795 5795 5795 5795 5795 5794 5794 5793 5793 5793 5793 5792 5793 5793 5792 5792 5793 5791 5789 5789 5790 5789 5787 5786 5787 5787 5787 5787 5787 5786 5786 5786 5786 5787 5787 5788
5819 5819 5819 5818 5818 5817 5816 5816 5815 5815 5815 5815 5814 5814 5813 5813 5812 5811 5810 5810 5810 5809 5809 5809 5808 5807 5807 5805 5805 5805 5804 5804 5803 5802 5801 5800 5800 5799 5798 5798 5798 5798 5798 5798 5798 5797 5797 5796 5796 5796 5795 5794 5794 5794 5793 5793 5792 5792 5792 5792 5791 5791 5791 5790 5791 5791 5790 5790 5791 5789 5787 5787 5787 5787 5786 5785 5785 5785 5785 5785 5784 5784 5784 5784 5784 5784 5784 5784
5815 5815 5816 5815 5815 5814 5813 5813 5813 5812 5812 5812 5812 5811 5811 5810 5809 5808 5808 5808 5808 5807 5807 5806 5806 5805 5805 5804 5803 5802 5802 5802 5802 5801 5800 5799 5799 5798 5798 5797 5797 5797 5797 5797 5796 5796 5796 5795 5795 5795 5794 5793 5792 5792 5792 5791 5790 5790 5790 5790 5790 5789 5788 5788 5788 5788 5788 5788 5788 5787 5786 5786 5785 5784 5783 5782 5781 5782 5782 5782 5782 5782 5781 5781 5781 5781 5781 5781
5811 5811 5812 5812 5811 5811 5810 5810 5810 5810 5809 5809 5809 5808 5808 5807 5806 5806 5805 5805 5805 5805 5804 5804 5804 5804 5803 5802 5801 5800 5800 5800 5801 5800 5799 5798 5798 5797 5797 5796 5795 5795 5795 5795 5795 5795 5794 5794 5794 5793 5792 5792 5791 5790 5790 5789 5789 5789 5788 5788 5788 5787 5787 5787 5786 5786 5786 5786 5785 5785 5784 5784 5783 5781 5779 5778 5778 5778 5779 5779 5779 5779 5780 5779 5779 5778 5778 5778
5807 5807 5807 5807 5807 5807 5807 5807 5807 5807 5806 5806 5806 5805 5805 5804 5803 5803 5802 5802 5802 5802 5802 5801 5801 5802 5801 5800 5799 5798 5797 5797 5798 5798 5798 5798 5797 5796 5795 5794 5793 5793 5793 5793 5793 5793 5792 5792 5792 5792 5791 5790 5790 5789 5789 5788 5788 5787 5786 5785 5785 5785 5785 5785 5785 5784 5784 5784 5783 5782 5782 5782 5781 5779 5778 5776 5775 5775 5775 5776 5777 5777 5777 5777 5776 5776 5776 5776
5802 5802 5803 5803 5803 5803 5803 5803 5803 5803 5803 5803 5803 5802 5802 5801 5800 5800 5799 5798 5799 5799 5799 5798 5798 5799 5799 5799 5797 5797 5796 5795 5795 5795 5796 5797 5796 5795 5794 5793 5792 5792 5792 5792 5792 5792 5791 5790 5790 5791 5791 5790 5789 5789 5788 5788 5787 5786 5784 5783 5782 5782 5782 5782 5782 5781 5782 5782 5780 5780 5780 5779 5779 5778 5777 5776 5775 5774 5773 5773 5774 5774 5774 5774 5774 5774 5773 5773
5797 5798 5798 5798 5799 5799 5799 5799 5799 5800 5800 5800 5799 5799 5799 5798 5797 5797 5796 5795 5796 5797 5796 5796 5795 5795 5796 5797 5795 5794 5793 5793 5792 5792 5792 5793 5794 5793 5792 5791 5791 5791 5791 5791 5791 5790 5790 5788 5788 5788 5789 5789 5789 5788 5787 5786 5786 5785 5783 5782 5782 5781 5780 5780 5780 5779 5779 5780 5779 5778 5777 5776 5776 5776 5776 5775 5774 5773 5772 5772 5771 5771 5771 5771 5771 5771 5771 5771
5793 5793 5793 5794 5794 5794 5795 5795 5795 5796 5796 5796 5796 5796 5795 5795 5795 5794 5792 5792 5792 5793 5794 5793 5792 5792 5792 5793 5792 5791 5790 5789 5789 5789 5788 5788 5790 5790 5789 5789 5788 5787 5788 5788 5787 5787 5787 5786 5785 5785 5785 5786 5786 5786 5786 5785 5784 5783 5782 5780 5779 5778 5778 5777 5777 5776 5776 5776 5777 5777 5775 5773 5773 5773 5774 5773 5772 5771 5770 5770 5769 5769 5769 5769 5769 5769 5768 5769
5788 5788 5789 5789 5789 5789 5790 5790 5791 5792 5792 5792 5792 5792 5792 5792 5791 5790 5790 5789 5789 5789 5790 5790 5790 5790 5790 5790 5790 5788 5786 5786 5786 5786 5786 5785 5786 5787 5787 5787 5785 5784 5784 5784 5783 5783 5784 5784 5783 5782 5782 5782 5782 5782 5782 5783 5783 5782 5780 5779 5777 5776 5776 5775 5774 5774 5773 5772 5773 5774 5773 5772 5771 5771 5771 5770 5769 5769 5768 5768 5767 5767 5767 5767 5767 5767 5766 5766
5782 5783 5784 5783 5784 5784 5785 5786 5786 5787 5787 5787 5788 5788 5789 5788 5787 5787 5786 5786 5785 5785 5786 5787 5787 5786 5786 5787 5788 5786 5784 5784 5784 5783 5783 5782 5783 5785 5785 5785 5784 5782 5781 5782 5781 5780 5781 5782 5781 5781 5780 5779 5779 5779 5778 5779 5779 5779 5777 5776 5776 5775 5774 5773 5773 5772 5770 5770 5770 5770 5770 5770 5769 5769 5768 5767 5766 5765 5765 5765 5764 5765 5765 5765 5765 5765 5765 5764
5777 5778 5778 5778 5779 5779 5780 5781 5782 5783 5783 5783 5783 5784 5785 5784 5784 5783 5782 5781 5781 5781 5782 5784 5784 5784 5783 5783 5784 5783 5782 5782 5781 5781 5781 5780 5780 5782 5783 5782 5782 5781 5778 5778 5779 5778 5778 5779 5779 5779 5777 5777 5778 5778 5777 5777 5777 5776 5775 5774 5773 5773 5772 5772 5771 5770 5768 5767 5767 5767 5768 5768 5767 5766 5765 5764 5763 5762 5762 5761 5761 5762 5762 5763 5763 5763 5763 5763
5772 5772 5773 5773 5774 5774 5774 5775 5777 5778 5778 5778 5779 5780 5780 5780 5780 5780 5779 5778 5777 5778 5779 5780 5780 5781 5781 5780 5780 5780 5779 5779 5778 5778 5778 5777 5777 5779 5780 5780 5779 5778 5776 5774 5775 5775 5775 5776 5777 5777 5775 5773 5775 5776 5776 5775 5775 5773 5773 5772 5771 5770 5770 5769 5768 5767 5766 5765 5764 5764 5765 5766 5765 5764 5762 5761 5760 5760 5759 5759 5758 5758 5759 5759 5760 5761 5761 5761
5766 5766 5767 5768 5768 5768 5769 5770 5771 5772 5772 5773 5774 5774 5775 5776 5776 5775 5775 5774 5774 5774 5774 5775 5776 5777 5777 5777 5777 5777 5776 5775 5775 5775 5775 5775 5775 5775 5777 5777 5776 5775 5773 5771 5772 5772 5772 5772 5773 5775 5773 5771 5772 5773 5772 5773 5772 5771 5770 5770 5769 5767 5766 5765 5765 5765 5763 5762 5761 5759 5761 5764 5763 5761 5760 5759 5758 5757 5756 5756 5755 5755 5755 5755 5756 5756 5756 5756
5759 5760 5761 5762 5762 5763 5764 5764 5765 5766 5767 5768 5769 5770 5770 5771 5771 5771 5770 5770 5770 5770 5770 5771 5771 5772 5773 5773 5773 5773 5772 5772 5772 5772 5772 5772 5772 5772 5772 5772 5772 5772 5771 5769 5768 5768 5768 5768 5768 5770 5771 5771 5769 5769 5768 5768 5768 5767 5767 5767 5767 5766 5764 5762 5762 5762 5761 5760 5758 5756 5757 5761 5761 5758 5757 5757 5757 5756 5754 5753 5752 5752 5751 5752 5752 5751 5751 5751
5753 5754 5755 5756 5756 5757 5758 5759 5760 5761 5762 5763 5764 5765 5765 5765 5766 5767 5766 5766 5766 5766 5766 5766 5767 5768 5768 5769 5769 5768 5768 5768 5768 5768 5768 5768 5768 5768 5768 5768 5768 5769 5768 5767 5765 5765 5765 5764 5764 5765 5767 5768 5767 5766 5765 5764 5764 5763 5763 5763 5763 5762 5762 5760 5759 5759 5758 5757 5756 5753 5753 5757 5758 5755 5753 5753 5753 5753 5752 5751 5750 5749 5749 5749 5749 5748 5748 5747
5747 5747 5748 5749 5750 5751 5752 5753 5755 5756 5757 5758 5759 5759 5759 5760 5761 5762 5762 5762 5762 5762 5762 5762 5762 5763 5763 5764 5764 5763 5763 5763 5763 5764 5764 5764 5764 5764 5764 5765 5765 5765 5765 5764 5762 5761 5761 5760 5760 5761 5762 5764 5765 5764 5763 5761 5760 5760 5760 5760 5759 5758 5758 5757 5756 5755 5754 5754 5754 5751 5750 5754 5755 5753 5751 5750 5750 5750 5750 5749 5748 5748 5748 5748 5747 5746 5745 5744
5740 5741 5741 5743 5744 5745 5747 5748 5748 5749 5751 5752 5753 5753 5753 5754 5756 5757 5757 5757 5757 5758 5758 5757 5758 5758 5758 5759 5759 5759 5758 5758 5758 5760 5760 5760 5759 5759 5760 5762 5762 5761 5760 5759 5757 5757 5758 5757 5755 5756 5757 5759 5762 5762 5760 5758 5756 5756 5756 5757 5756 5756 5755 5754 5752 5751 5750 5751 5752 5749 5748 5750 5751 5750 5749 5748 5747 5747 5747 5746 5745 5745 5745 5745 5744 5743 5742 5741
5733 5734 5735 5737 5739 5740 5741 5741 5742 5744 5746 5746 5747 5748 5748 5749 5750 5750 5751 5752 5753 5753 5753 5753 5753 5753 5753 5753 5754 5754 5755 5754 5753 5754 5755 5755 5755 5755 5756 5757 5758 5757 5755 5754 5753 5753 5754 5753 5752 5752 5752 5754 5757 5758 5758 5756 5753 5752 5752 5752 5752 5752 5752 5751 5750 5748 5747 5747 5747 5746 5746 5747 5747 5746 5745 5744 5743 5743 5743 5743 5742 5741 5741 5741 5741 5740 5739 5738
5726 5727 5728 5730 5732 5734 5734 5735 5737 5739 5740 5740 5741 5743 5744 5744 5745 5745 5746 5747 5748 5748 5748 5747 5748 5749 5749 5748 5748 5749 5750 5749 5749 5749 5750 5750 5750 5751 5751 5752 5753 5753 5751 5750 5749 5749 5749 5749 5748 5748 5748 5749 5751 5753 5754 5753 5751 5749 5748 5747 5747 5748 5749 5748 5746 5745 5745 5744 5741 5743 5744 5742 5742 5743 5741 5740 5739 5738 5739 5739 5738 5738 5737 5737 5737 5736 5735 5735
5720 5720 5721 5723 5725 5726 5728 5729 5731 5733 5733 5734 5736 5737 5738 5738 5739 5739 5740 5741 5741 5742 5742 5742 5742 5743 5744 5744 5744 5744 5744 5744 5744 5744 5745 5745 5746 5746 5747 5748 5749 5748 5746 5745 5745 5745 5745 5744 5744 5744 5744 5745 5747 5747 5749 5749 5748 5746 5745 5743 5743 5744 5745 5744 5742 5742 5743 5740 5738 5741 5741 5738 5738 5740 5738 5736 5735 5734 5734 5735 5735 5734 5734 5734 5733 5733 5732 5732
5712 5712 5714 5717 5718 5720 5722 5723 5725 5726 5727 5729 5730 5730 5731 5732 5734 5734 5735 5735 5736 5736 5736 5736 5736 5736 5737 5737 5738 5738 5739 5739 5739 5740 5740 5740 5741 5741 5743 5744 5744 5742 5742 5741 5741 5741 5740 5739 5739 5739 5739 5741 5741 5742 5744 5745 5744 5742 5741 5739 5740 5741 5741 5740 5738 5739 5739 5737 5735 5738 5737 5734 5736 5738 5735 5732 5731 5730 5730 5730 5731 5731 5731 5730 5729 5729 5729 5729
5705 5706 5707 5710 5712 5713 5715 5716 5718 5720 5721 5722 5723 5724 5725 5727 5728 5728 5729 5730 5730 5730 5729 5729 5730 5730 5730 5730 5730 5732 5733 5734 5734 5734 5735 5735 5736 5737 5738 5739 5738 5737 5737 5737 5736 5736 5735 5734 5735 5733 5733 5734 5736 5737 5739 5740 5738 5737 5735 5735 5737 5739 5737 5735 5734 5735 5735 5734 5733 5733 5731 5731 5734 5735 5732 5729 5728 5726 5725 5726 5727 5727 5727 5727 5726 5726 5726 5726
5698 5699 5700 5704 5705 5706 5708 5709 5711 5713 5714 5715 5717 5718 5719 5720 5721 5722 5723 5724 5724 5724 5724 5724 5724 5723 5723 5724 5724 5725 5727 5728 5728 5728 5730 5730 5731 5731 5732 5732 5733 5732 5732 5732 5731 5730 5729 5729 5729 5729 5728 5729 5730 5732 5734 5734 5732 5731 5730 5731 5734 5735 5733 5731 5732 5732 5731 5730 5730 5729 5727 5728 5731 5730 5727 5726 5725 5723 5722 5722 5723 5723 5723 5723 5723 5722 5722 5722
5691 5692 5694 5696 5698 5699 5700 5702 5703 5705 5707 5709 5710 5711 5713 5714 5714 5715 5715 5717 5718 5718 5718 5718 5717 5717 5717 5718 5718 5719 5720 5721 5722 5724 5726 5726 5726 5726 5725 5726 5726 5726 5727 5726 5726 5725 5725 5724 5724 5724 5723 5723 5725 5727 5728 5728 5726 5723 5724 5728 5731 5729 5728 5728 5729 5728 5727 5726 5726 5725 5724 5726 5727 5724 5722 5723 5722 5721 5720 5720 5720 5720 5720 5720 5719 5718 5718 5718
5683 5684 5686 5688 5691 5692 5693 5694 5696 5698 5700 5702 5703 5704 5705 5707 5707 5707 5708 5710 5710 5711 5711 5712 5712 5712 5713 5713 5713 5713 5714 5715 5717 5719 5720 5720 5719 5719 5719 5719 5719 5720 5720 5720 5720 5720 5720 5719 5719 5719 5718 5718 5718 5720 5723 5723 5719 5716 5720 5726 5726 5724 5724 5725 5724 5724 5723 5723 5722 5721 5722 5723 5722 5720 5719 5719 5718 5718 5717 5717 5717 5717 5717 5717 5716 5715 5715 5715